Wind_Speed
4 3 4 5 5 7 7 11 6 8 7 5 4 9 14 18 22 25 25 21 19 17 13 10 7 5 8 9 11 11 13 15 15 15 18 20 22 24 25 25 23 25 25 24
3 6 9 7 8 10 11 11 11 18 19 19 24 17 21 23 23 22 21 18 14 11 8 5 4 6 8 10 10 12 14 14 17 18 19 22 24 27 26 22 24 27 25 25
4 3 4 5 9 14 9 6 6 8 9 9 4 16 18 21 21 23 23 21 17 14 10 6 6 8 9 11 12 13 13 16 18 19 21 25 29 27 22 24 26 23 24 31
3 2 2 8 2 3 9 10 8 7 6 8 12 16 15 15 22 21 19 16 13 11 9 6 6 8 11 13 13 15 16 18 19 22 26 28 27 24 25 26 23 24 27 26
3 3 6 8 2 3 4 2 4 7 12 21 27 24 16 13 17 19 18 16 13 10 9 7 7 11 14 14 16 18 19 19 22 24 26 27 25 25 25 24 26 26 27 26
2 3 5 5 2 2 5 4 14 16 12 24 22 4 4 18 18 18 16 13 11 9 5 4 6 10 13 14 16 19 20 22 25 27 27 25 25 25 27 28 26 29 25 27
2 2 6 2 6 1 3 6 10 11 19 17 7 10 24 20 17 14 11 7 4 1 3 5 10 13 15 18 20 21 24 26 26 26 28 25 27 27 27 27 27 25 29 31
2 2 7 9 4 3 4 4 6 16 20 25 27 26 21 17 12 7 5 4 3 1 4 8 10 14 17 18 19 21 23 25 26 27 26 27 25 26 30 28 26 30 30 33
7 5 4 5 11 9 4 6 13 18 20 23 23 19 15 14 14 13 10 5 2 5 8 10 14 16 17 19 21 22 23 21 21 21 25 26 29 33 26 25 30 32 30 33
4 3 11 13 9 7 8 11 15 16 18 16 18 15 16 14 9 6 4 1 4 7 10 12 14 17 19 20 22 23 25 28 32 32 27 30 32 28 29 31 30 32 30 32
2 6 13 9 9 12 16 16 19 18 15 15 17 15 15 15 10 4 2 4 8 9 12 14 17 17 19 21 24 28 31 29 24 26 30 32 29 27 30 31 26 29 32 36
5 16 10 15 16 17 19 18 18 21 21 18 18 17 13 9 4 1 5 6 9 12 13 14 17 20 21 25 28 26 22 22 26 31 31 29 31 36 36 32 34 34 33 30
5 14 12 22 21 20 22 21 21 21 20 19 15 11 8 5 5 3 4 8 10 12 16 21 23 24 26 27 18 17 22 28 31 28 28 33 37 37 38 42 38 35 31 33
16 20 22 24 25 23 23 22 21 18 14 11 9 7 8 6 2 3 7 9 13 18 20 20 23 25 22 20 21 22 29 28 27 29 32 36 37 40 34 35 38 38 36 34
22 9 25 27 26 25 24 22 18 14 12 12 8 6 4 1 3 6 9 12 15 18 21 24 21 19 22 19 25 27 29 29 30 30 34 38 41 36 35 35 34 37 35 33
16 24 30 29 28 24 19 18 19 16 14 11 7 2 1 4 5 7 10 14 20 24 22 17 20 20 23 28 26 31 34 31 30 31 40 43 34 34 33 35 36 33 34 30
33 29 29 27 26 23 22 19 17 15 12 7 2 1 3 6 7 11 15 18 20 18 16 17 22 27 29 25 29 33 34 32 34 41 41 33 31 32 36 34 33 32 37 28
20 27 27 30 28 26 22 18 15 12 8 3 1 4 6 8 11 14 17 19 17 16 15 20 26 29 27 30 34 32 30 36 39 36 29 30 31 36 35 34 34 31 36 40
26 29 29 27 25 21 18 15 11 6 4 3 3 4 7 10 13 15 17 17 18 19 22 25 30 30 32 32 29 31 36 36 30 28 30 32 35 33 33 31 36 38 33 34
31 28 26 23 18 18 17 12 13 8 3 1 4 6 9 12 15 16 16 18 17 20 25 31 33 31 28 30 34 34 32 26 26 29 30 33 29 32 34 33 31 35 32 30
29 26 24 23 21 16 14 13 9 5 2 2 5 8 12 15 16 15 16 17 20 27 30 31 30 26 30 34 34 30 26 26 28 32 28 29 33 32 31 34 30 29 30 29
28 26 24 20 17 15 11 7 5 3 2 4 7 10 15 17 17 18 17 22 25 27 30 31 25 30 33 33 31 25 25 28 29 26 27 31 27 31 33 30 30 29 29 28
25 22 19 16 13 10 8 5 4 3 4 6 9 14 17 16 17 22 25 23 24 27 30 27 28 30 31 31 26 27 29 27 25 26 27 26 30 28 28 28 28 28 28 27
23 19 16 12 10 8 8 6 5 6 7 5 10 14 14 18 21 19 20 23 27 29 28 27 27 29 30 26 26 30 27 25 25 24 25 28 25 27 29 29 28 27 27 29
19 16 13 11 10 10 8 7 5 2 4 8 11 14 18 17 17 20 23 28 26 27 26 26 27 28 26 26 28 28 26 25 22 24 27 24 25 29 29 27 27 27 29 31
17 16 14 13 15 12 6 3 3 5 8 10 12 18 16 15 18 23 28 27 25 25 25 25 26 25 26 27 27 26 24 21 23 25 24 23 26 27 27 27 27 29 30 30
16 13 11 11 8 5 1 3 5 7 8 12 16 15 16 19 22 27 26 24 24 25 24 24 24 25 26 26 25 23 20 21 23 23 22 24 26 26 27 27 28 28 29 30
Wind_Direction
213 225 191 190 203 177 197 225 191 261 229 219 7 186 159 137 139 136 138 140 144 144 148 158 181 229 271 288 299 308 317 321 323 317 311 308 312 317 320 322 328 329 332 335
297 241 239 231 226 207 217 245 250 260 271 273 305 186 157 150 148 137 137 134 139 144 152 175 223 263 272 282 295 305 314 315 313 314 304 307 313 320 322 329 324 325 331 325
257 28 32 335 229 225 217 196 198 210 243 285 249 156 153 157 153 143 138 140 138 141 151 181 244 270 278 294 308 316 316 312 315 304 304 309 316 321 325 321 323 326 318 322
236 22 313 239 148 202 225 247 219 223 223 142 125 118 122 137 143 142 143 148 155 169 186 217 243 267 291 311 319 316 314 314 308 306 310 315 318 322 319 320 319 317 324 324
150 221 277 307 147 137 158 273 351 302 199 129 123 113 96 132 145 150 157 159 166 188 204 229 278 303 322 327 323 321 319 306 308 312 315 317 320 321 321 313 315 323 323 328
147 176 233 244 106 46 69 287 356 345 143 136 136 110 151 136 149 148 157 165 185 208 247 317 326 308 319 314 316 320 312 312 315 316 314 315 315 314 315 310 319 319 319 320
158 234 287 201 131 67 105 243 358 118 131 128 84 127 140 148 142 152 157 178 211 247 316 314 305 307 304 310 316 314 314 315 316 315 314 309 309 312 308 315 313 316 314 314
132 97 271 146 124 191 165 90 83 125 125 116 122 130 137 136 130 124 125 114 61 359 328 319 308 312 319 323 321 321 319 316 317 317 314 314 307 307 312 315 313 310 315 314
172 211 187 95 124 122 141 131 136 137 137 139 136 135 136 127 127 137 137 138 289 299 294 301 317 319 318 321 319 318 320 323 322 320 325 315 312 317 321 310 311 315 316 314
84 208 144 127 121 127 144 125 142 147 147 147 137 135 133 138 140 126 119 177 278 297 318 320 314 315 318 319 316 312 313 314 316 323 323 315 321 317 315 318 318 317 315 315
209 108 121 143 145 149 137 133 133 133 139 133 131 137 143 140 138 146 210 296 318 324 318 320 319 317 321 318 314 316 315 320 330 320 319 323 324 324 324 321 320 317 316 318
215 192 177 178 162 162 146 130 132 130 132 138 142 130 139 132 137 305 350 336 323 325 325 320 317 317 313 313 316 321 330 330 325 326 328 328 329 327 325 321 321 321 321 319
151 161 176 149 151 156 143 139 141 141 141 139 135 142 135 96 55 41 345 335 334 322 313 316 319 318 322 319 324 329 320 325 323 327 327 330 330 329 326 323 324 324 321 320
158 144 128 151 140 148 146 144 147 140 138 137 134 125 118 101 77 11 349 323 310 315 325 330 330 329 328 331 321 320 330 326 325 326 329 331 330 330 324 322 322 323 325 327
155 173 160 150 146 143 148 148 142 133 131 122 120 108 107 100 334 326 314 317 329 335 339 340 337 335 332 331 336 332 328 326 324 323 327 329 329 326 326 322 323 323 325 325
157 155 152 150 144 145 144 139 134 128 129 133 137 131 355 337 336 340 341 344 346 345 347 348 337 340 333 338 333 329 328 328 322 321 326 328 331 327 325 326 325 323 324 326
149 144 152 146 144 144 147 143 141 143 153 175 191 318 349 9 4 357 353 347 345 352 359 349 338 328 328 329 326 326 324 324 324 325 328 331 330 326 326 327 326 324 325 328
173 160 155 150 151 145 140 144 152 168 180 171 81 18 21 8 358 350 347 348 352 352 346 328 328 327 326 324 327 326 324 323 325 328 334 332 327 326 330 327 329 325 321 322
150 150 152 152 152 149 148 156 165 176 156 108 36 23 9 356 346 347 346 354 354 341 332 329 330 329 326 327 326 323 323 325 331 334 330 327 328 331 332 328 322 326 330 325
144 146 148 143 149 156 153 147 150 165 166 335 15 7 352 347 342 346 352 353 334 326 327 330 330 330 329 328 329 332 334 337 336 330 327 331 337 333 327 330 330 325 327 332
143 146 148 153 150 152 154 169 187 190 165 20 0 350 347 346 349 352 347 335 329 325 328 332 337 330 328 330 335 340 343 337 330 332 343 343 330 334 335 331 336 336 338 341
151 153 153 156 157 156 158 154 152 136 72 359 350 349 348 354 356 345 335 333 331 330 333 336 331 327 330 336 340 345 337 333 338 346 340 333 340 335 339 342 343 348 349 352
153 150 149 150 149 150 148 139 114 67 33 6 354 351 345 343 338 336 338 337 329 330 331 333 328 329 334 339 342 341 337 340 344 337 340 341 340 345 349 350 353 354 354 355
150 149 146 140 137 134 129 107 66 44 35 14 340 332 331 330 332 336 335 331 327 327 331 330 331 333 338 341 344 340 340 341 337 343 345 344 350 355 358 356 355 356 359 2
148 141 131 120 117 111 109 93 113 109 292 306 321 327 332 334 337 332 327 330 330 331 331 333 336 338 341 343 342 341 341 343 345 345 345 350 355 358 355 355 357 358 360 2
141 134 128 130 138 152 184 206 239 295 318 330 336 336 342 338 328 328 331 331 336 336 336 339 341 343 344 344 344 344 346 347 347 346 349 353 355 355 356 357 358 1 360 0
138 144 148 153 170 178 256 315 340 350 352 335 336 337 331 328 327 328 332 340 341 342 343 344 346 348 346 346 346 348 347 347 346 346 349 353 354 356 357 357 359 360 360 0
Height
1584 1580 1585 1585 1588 1594 1597 1585 1593 1573 1575 1568 1566 1567 1567 1569 1573 1575 1579 1582 1584 1587 1590 1593 1594 1596 1597 1597 1598 1598 1597 1596 1594 1591 1587 1584 1582 1579 1575 1572 1568 1565 1562 1559
1582 1579 1580 1578 1576 1580 1583 1581 1580 1575 1573 1563 1563 1563 1565 1567 1571 1575 1579 1583 1585 1588 1590 1592 1593 1595 1595 1596 1597 1596 1595 1593 1591 1587 1583 1580 1577 1575 1572 1568 1564 1561 1558 1554
1592 1581 1582 1593 1572 1569 1567 1569 1569 1579 1564 1562 1564 1562 1564 1566 1569 1574 1578 1582 1585 1587 1590 1592 1593 1594 1595 1595 1595 1593 1592 1590 1587 1583 1579 1576 1573 1570 1567 1563 1559 1556 1552 1549
1601 1588 1614 1568 1556 1557 1562 1561 1561 1559 1559 1559 1559 1564 1566 1568 1569 1575 1578 1581 1584 1587 1589 1591 1592 1593 1594 1593 1592 1591 1589 1586 1582 1578 1575 1572 1569 1567 1563 1559 1555 1551 1547 1545
1605 1601 1578 1560 1555 1556 1559 1559 1557 1553 1553 1556 1559 1563 1571 1570 1572 1574 1577 1580 1584 1588 1589 1590 1592 1593 1592 1590 1589 1587 1585 1581 1577 1574 1571 1569 1566 1563 1559 1554 1550 1546 1543 1538
1597 1601 1597 1564 1556 1556 1555 1570 1556 1555 1553 1555 1557 1571 1574 1571 1572 1576 1579 1582 1585 1587 1589 1590 1591 1591 1590 1588 1586 1584 1581 1577 1574 1570 1567 1564 1561 1557 1553 1549 1545 1541 1537 1534
1596 1594 1576 1557 1556 1556 1570 1573 1558 1556 1556 1557 1561 1565 1570 1571 1574 1578 1580 1584 1587 1588 1589 1590 1590 1589 1586 1585 1582 1580 1577 1573 1569 1566 1562 1559 1555 1552 1546 1542 1538 1535 1531 1527
1591 1603 1587 1555 1557 1561 1562 1560 1560 1560 1560 1561 1564 1568 1570 1574 1577 1580 1583 1586 1588 1589 1590 1589 1587 1585 1582 1580 1578 1576 1572 1568 1565 1562 1558 1554 1549 1545 1541 1537 1532 1528 1523 1519
1571 1570 1556 1554 1556 1558 1559 1560 1560 1561 1563 1563 1566 1570 1573 1578 1581 1583 1585 1587 1588 1588 1587 1585 1583 1580 1578 1575 1573 1569 1566 1562 1559 1556 1553 1549 1543 1539 1534 1531 1526 1522 1518 1513
1559 1555 1554 1554 1556 1559 1559 1560 1561 1562 1564 1567 1569 1573 1577 1580 1583 1584 1585 1585 1585 1584 1583 1582 1579 1577 1574 1571 1567 1563 1560 1557 1554 1550 1547 1542 1538 1533 1529 1525 1521 1517 1512 1507
1554 1554 1555 1556 1557 1557 1558 1560 1562 1565 1567 1569 1572 1576 1578 1581 1582 1583 1583 1583 1583 1581 1580 1579 1576 1573 1570 1566 1562 1559 1556 1552 1548 1544 1540 1535 1530 1527 1523 1520 1516 1511 1507 1501
1554 1545 1548 1551 1554 1556 1558 1561 1564 1565 1569 1571 1573 1576 1578 1580 1581 1582 1582 1582 1581 1580 1578 1576 1573 1569 1566 1563 1558 1554 1551 1548 1544 1539 1534 1529 1524 1519 1516 1513 1509 1504 1500 1496
1541 1543 1545 1549 1553 1555 1557 1561 1564 1567 1569 1571 1575 1577 1579 1580 1582 1582 1582 1581 1580 1578 1575 1572 1569 1566 1562 1557 1553 1551 1547 1544 1539 1534 1529 1524 1519 1514 1508 1499 1499 1495 1492 1487
1540 1543 1549 1550 1552 1556 1558 1561 1565 1568 1572 1574 1576 1578 1580 1581 1581 1581 1580 1579 1577 1575 1572 1568 1565 1561 1557 1553 1550 1547 1544 1539 1534 1529 1525 1521 1516 1510 1504 1498 1489 1485 1483 1479
1539 1540 1545 1549 1553 1557 1560 1563 1567 1572 1575 1577 1578 1579 1579 1579 1580 1580 1578 1576 1574 1571 1567 1564 1560 1556 1553 1549 1546 1542 1538 1532 1527 1523 1519 1515 1510 1504 1499 1493 1487 1481 1475 1471
1538 1542 1546 1550 1555 1559 1563 1567 1570 1574 1577 1577 1578 1578 1579 1579 1578 1577 1576 1574 1570 1567 1564 1561 1557 1554 1551 1546 1542 1537 1532 1527 1523 1518 1514 1508 1502 1498 1493 1488 1482 1476 1471 1465
1537 1544 1547 1552 1557 1561 1565 1569 1572 1574 1575 1576 1578 1578 1578 1577 1578 1576 1574 1571 1567 1564 1561 1557 1555 1551 1546 1541 1535 1530 1525 1522 1518 1512 1507 1502 1498 1493 1488 1483 1477 1472 1466 1461
1538 1542 1547 1552 1556 1560 1565 1569 1571 1573 1576 1577 1577 1578 1577 1576 1575 1573 1570 1567 1564 1560 1558 1555 1551 1546 1541 1535 1530 1525 1522 1517 1512 1506 1501 1497 1493 1488 1483 1478 1472 1466 1460 1454
1540 1543 1549 1554 1557 1561 1566 1570 1573 1574 1576 1577 1577 1576 1576 1575 1573 1571 1568 1564 1561 1559 1556 1553 1548 1542 1536 1532 1527 1522 1517 1511 1505 1501 1497 1492 1487 1483 1478 1473 1467 1461 1455 1448
1541 1546 1551 1556 1559 1563 1568 1571 1572 1573 1575 1576 1575 1575 1574 1573 1570 1568 1565 1563 1560 1557 1553 1548 1542 1537 1532 1527 1522 1517 1512 1507 1502 1497 1492 1487 1483 1478 1473 1468 1462 1456 1450 1444
1544 1548 1553 1557 1561 1565 1568 1571 1572 1574 1575 1574 1574 1573 1572 1570 1567 1565 1563 1560 1557 1553 1549 1544 1539 1534 1529 1522 1516 1510 1508 1505 1500 1493 1488 1484 1479 1474 1469 1463 1457 1451 1445 1440
1546 1550 1555 1559 1562 1565 1568 1570 1571 1573 1573 1573 1572 1571 1569 1567 1565 1563 1560 1557 1554 1550 1546 1541 1536 1531 1525 1518 1513 1507 1505 1502 1496 1491 1486 1481 1476 1471 1465 1459 1454 1448 1443 1437
1549 1554 1558 1561 1563 1566 1568 1570 1571 1572 1572 1571 1570 1568 1567 1565 1563 1560 1557 1554 1549 1546 1543 1538 1533 1527 1520 1514 1509 1505 1502 1498 1494 1489 1484 1479 1474 1468 1463 1457 1451 1446 1441 1436
1551 1555 1558 1561 1564 1566 1568 1570 1570 1571 1571 1570 1569 1567 1565 1563 1560 1557 1553 1550 1546 1542 1538 1533 1528 1523 1516 1511 1506 1503 1499 1495 1491 1486 1482 1477 1471 1466 1460 1455 1450 1445 1440 1434
1552 1556 1559 1562 1564 1566 1568 1569 1570 1570 1570 1568 1566 1565 1562 1558 1556 1553 1550 1546 1542 1538 1533 1528 1523 1518 1512 1508 1504 1500 1496 1492 1489 1484 1480 1475 1470 1464 1460 1455 1450 1444 1438 1432
1554 1557 1560 1562 1565 1566 1568 1568 1568 1567 1567 1565 1563 1561 1558 1555 1553 1550 1547 1542 1538 1534 1529 1524 1519 1514 1510 1505 1501 1497 1493 1490 1486 1482 1478 1473 1469 1464 1459 1453 1448 1442 1437 1432
1555 1558 1561 1563 1565 1566 1567 1566 1566 1565 1563 1561 1560 1557 1554 1552 1550 1546 1543 1539 1534 1530 1525 1521 1516 1512 1508 1503 1499 1495 1491 1488 1485 1481 1477 1472 1467 1462 1457 1452 1447 1442 1437 1431